Regional Weather Roundup
Issued by NWS

Home | Current Version | Previous Version | Graphics & Text | Print | Product List | Glossary Off
Versions: 1 2 3 4 5 6 7 8 9 10 11 12 13 14 15 16 17 18 19 20 21 22 23 24 25 26 27 28 29 30 31 32 33 34 35 36 37 38 39 40 41 42 43 44 45 46 47 48 49 50

000
ASUS43 KFSD 211402
RWRSD

WEATHER ROUNDUP FOR SOUTH DAKOTA
NATIONAL WEATHER SERVICE SIOUX FALLS SD
800 AM CST SUN DEC 21 2014

NOTE: "FAIR" INDICATES FEW OR NO CLOUDS BELOW 12,000 FEET WITH NO
SIGNIFICANT WEATHER AND/OR OBSTRUCTIONS TO VISIBILITY.


SDZ001>005-009-010-012>017-211500-
NORTHWEST AND NORTH CENTRAL SOUTH DAKOTA

CITY           SKY/WX    TMP DP  RH WIND       PRES   REMARKS
BUFFALO          N/A     28  21  75 S5        29.44F WCI  23
FAITH            N/A     25  21  85 S15       29.54F WCI  13
MOBRIDGE       CLEAR     25  22  88 E9        29.58F WCI  15
$$

SDZ012>016-024>037-041>051-057-063-072>074-211500-
SOUTHWEST AND SOUTH CENTRAL SOUTH DAKOTA

CITY           SKY/WX    TMP DP  RH WIND       PRES   REMARKS
RAPID CTY ARPT MOCLDY    25  19  78 SW3       29.54F
PIERRE         CLEAR     24  22  91 SE10      29.61F WCI  14
CUSTER         CLEAR     29  22  75 W13       29.54F WCI  19
ELLSWORTH AFB  PTCLDY    31  21  67 W3        29.53F
PHILIP         CLEAR     18  15  88 NW3       29.58F
PINE RIDGE     PTCLDY    26  20  77 W6        29.61F WCI  19
WINNER         FAIR      36  25  64 VRB3      29.64F
$$

SDZ004>011-016>023-039-040-211500-
NORTHEAST SOUTH DAKOTA

CITY           SKY/WX    TMP DP  RH WIND       PRES   REMARKS
ABERDEEN       FOG       31  29  92 S14       29.70F VSB 1   WCI  21
WATERTOWN      CLOUDY    29  29 100 S9        29.73F FOG     WCI  20
SISSETON         N/A     30  29  96 S10       29.73F WCI  21
$$

SDZ017-020-022-023-036>040-048>070-211500-
SOUTHEAST SOUTH DAKOTA

CITY           SKY/WX    TMP DP  RH WIND       PRES   REMARKS
SIOUX FALLS    FOG       32  31  96 S8        29.78F VSB 1/4 WCI  25
HURON          FOG       30  30 100 S13       29.72F VSB 1   WCI  20
MITCHELL       FRZ RAIN  31  31 100 S12       29.75F VSB 1/2 WCI  22
YANKTON        CLOUDY    30  28  93 SE8       29.78F WCI  23
$$

ABBREVIATIONS USED IN REMARKS
   TC - TEMPERATURE IN CELSIUS
  WCI - WIND CHILL INDEX
   HX - HEAT INDEX
  VSB - VISIBILITY



USA.gov is the U.S. government's official web portal to all federal, state and local government web resources and services.